User: anonymous   Login
Location: Home
(42.5358°N, 72.7383°W)
Time: 01:09:49
(UTC-05:00)
Language:

NOAA 19 - Orbit

View from above orbital plane
View from above orbital plane
View from above satellite
View from above satellite

Ground track
Ground track

The orbit data is extracted from the following two-line orbital elements,

1 33591U 09005A   22027.67447993  .00000055  00000-0  55024-4 0  9997
2 33591  99.1658  58.7339 0013353 220.5558 139.4619 14.12525177668578
Epoch (UTC): 27 January 2022 16:11:15
Eccentricity: 0.0013353
inclination: 99.1658°
perigee height: 841 km
apogee height: 860 km
right ascension of ascending node: 58.7339°
argument of perigee: 220.5558°
revolutions per day: 14.12525177
mean anomaly at epoch: 139.4619°
orbit number at epoch: 66857

The dashed part of the orbit path shows where the satellite is in the earth's shadow,  

DLR